TimeEDT,TemperatureF,Dew PointF,Humidity,Sea Level PressureIn,VisibilityMPH,Wind Direction,Wind SpeedMPH,Gust SpeedMPH,PrecipitationIn,Events,Conditions,WindDirDegrees,DateUTC
12:53 AM,57.0,52.0,83,30.03,10.0,WSW,4.6,-,N/A,,Clear,250,2012-10-31 04:53:00
1:53 AM,57.9,52.0,81,30.03,10.0,WSW,3.5,-,N/A,,Clear,240,2012-10-31 05:53:00
2:53 AM,57.9,52.0,81,30.03,10.0,Calm,Calm,-,N/A,,Clear,0,2012-10-31 06:53:00
3:53 AM,57.9,54.0,87,30.03,10.0,Calm,Calm,-,N/A,,Clear,0,2012-10-31 07:53:00
4:53 AM,57.0,53.1,87,30.03,10.0,Calm,Calm,-,N/A,,Clear,0,2012-10-31 08:53:00
5:53 AM,55.9,53.1,90,30.04,10.0,Calm,Calm,-,N/A,,Clear,0,2012-10-31 09:53:00
6:53 AM,55.0,52.0,89,30.04,10.0,Calm,Calm,-,N/A,,Clear,0,2012-10-31 10:53:00
7:53 AM,55.9,54.0,93,30.05,10.0,Calm,Calm,-,N/A,,Clear,0,2012-10-31 11:53:00
8:53 AM,62.1,57.9,86,30.06,10.0,Calm,Calm,-,N/A,,Clear,0,2012-10-31 12:53:00
9:53 AM,68.0,52.0,56,30.08,10.0,North,5.8,-,N/A,,Clear,360,2012-10-31 13:53:00
10:53 AM,70.0,51.1,51,30.08,10.0,NNW,5.8,-,N/A,,Clear,330,2012-10-31 14:53:00
11:53 AM,71.1,52.0,51,30.08,10.0,NNW,6.9,-,N/A,,Clear,330,2012-10-31 15:53:00
12:53 PM,72.0,54.0,53,30.05,10.0,Variable,6.9,-,N/A,,Clear,0,2012-10-31 16:53:00
1:53 PM,73.9,55.0,52,30.03,10.0,NW,10.4,-,N/A,,Clear,310,2012-10-31 17:53:00
2:53 PM,73.4,53.6,50,30.02,10.0,NW,10.4,-,N/A,,Clear,310,2012-10-31 18:53:00
3:53 PM,73.0,55.0,53,30.01,10.0,West,6.9,-,N/A,,Clear,260,2012-10-31 19:53:00
4:53 PM,73.0,55.0,53,30.00,10.0,WNW,6.9,-,N/A,,Clear,300,2012-10-31 20:53:00
5:53 PM,72.0,54.0,53,30.01,10.0,Calm,Calm,-,N/A,,Clear,0,2012-10-31 21:53:00
6:53 PM,69.1,55.0,61,30.02,10.0,WNW,3.5,-,N/A,,Clear,290,2012-10-31 22:53:00
7:53 PM,68.0,55.4,64,30.02,10.0,Calm,Calm,-,N/A,,Clear,0,2012-10-31 23:53:00
8:53 PM,68.0,55.0,63,-9999,10.0,Calm,Calm,-,N/A,,Clear,0,2012-11-01 00:53:00